This is the latest recevied weather packets stored in our database for station/object DC1MAK-13. If no packets are shown the sender has not sent any weather packets the latest 10 day(s).
| Time | Temp. | Humidity | Pressure | Rain* | Wind** | Luminosity | Snow |
|---|---|---|---|---|---|---|---|
| 1787586994 | 21.11° C | 50% | 986.8 hPa | - | - | - | - |
| 1787586697 | 21.11° C | 50% | 986.8 hPa | - | - | - | - |
| 1787586691 | 21.11° C | 50% | 986.8 hPa | - | - | - | - |
| 1787586393 | 21.67° C | 50% | 986.9 hPa | - | - | - | - |
| 1787585787 | 21.67° C | 49% | 987 hPa | - | - | - | - |
| 1787585780 | 21.67° C | 49% | 987 hPa | - | - | - | - |
| 1787585487 | 22.22° C | 47% | 987.2 hPa | - | - | - | - |
| 1787585477 | 22.22° C | 47% | 987.2 hPa | - | - | - | - |
| 1787585179 | 22.22° C | 47% | 987.2 hPa | - | - | - | - |
| 1787584876 | 22.22° C | 46% | 987.1 hPa | - | - | - | - |
| 1787584572 | 22.78° C | 47% | 987 hPa | - | - | - | - |
| 1787584263 | 22.78° C | 46% | 987 hPa | - | - | - | - |
| 1787583967 | 22.78° C | 46% | 987 hPa | - | - | - | - |
| 1787583960 | 22.78° C | 46% | 987 hPa | - | - | - | - |
| 1787583667 | 23.33° C | 44% | 986.9 hPa | - | - | - | - |
| 1787583359 | 24.44° C | 41% | 986.9 hPa | - | - | - | - |
| 1787583055 | 24.44° C | 42% | 987.2 hPa | - | - | - | - |
| 1787583049 | 24.44° C | 42% | 987.2 hPa | - | - | - | - |
| 1787582752 | 23.89° C | 42% | 987.3 hPa | - | - | - | - |
| 1787582746 | 23.89° C | 42% | 987.3 hPa | - | - | - | - |
| 1787582442 | 23.33° C | 43% | 987.3 hPa | - | - | - | - |
| 1787582147 | 23.33° C | 44% | 987.4 hPa | - | - | - | - |
| 1787581847 | 23.33° C | 44% | 987.5 hPa | - | - | - | - |
| 1787581538 | 23.33° C | 43% | 987.6 hPa | - | - | - | - |
| 1787581532 | 23.33° C | 43% | 987.6 hPa | - | - | - | - |
* Rain since midnight (hover to see other rain measurements)
** Current wind speed in m/s (hover to see current wind gust speed)